Home   Weather   Caversham   Past weeks

Flag for United Kingdom Past Weather in Caversham, England, United Kingdom — Yesterday and Last 2 Weeks

Now
47 °F

Cool.


Feels Like: 44 °F
Forecast: N/A
Wind: 8 mph from Northwest

Location: Benson

Current Time: Dec 10, 2016 at 10:27:06 pm

Latest Report: Dec 10, 2016 at 9:00 pm


Visibility: 9 mi

Pressure: 30.12 "Hg

Humidity: 94%

Dew Point: 46 °F

Location of CavershamLocation

Past Weather in Caversham — Graph

°F

Caversham Temperature Yesterday

Maximum temperature yesterday: 56 °F (at 2:00 pm)
Minimum temperature yesterday: 50 °F (at 6:00 pm)
Average temperature yesterday: 54 °F

High & Low Weather Summary for the Past Weeks

 TemperatureHumidityPressure
High56 °F (Dec 8, 1:00 pm)100% (Dec 1, 10:00 pm)30.61 "Hg (Dec 1, 10:00 pm)
Low17 °F (Nov 30, 4:00 am)37% (Nov 28, 1:00 pm)30.02 "Hg (Dec 10, 7:00 pm)
Average40 °F89%30.32 "Hg
* Reported Nov 25 9:00 pm — Dec 10 9:00 pm, Caversham, Weather by CustomWeather, © 2016

Note: Actual official high and low records may vary slightly from our data, if they occured in-between our weather recording intervals... More about our weather records

Advertising

Caversham Weather History for the Previous 24 Hours

Scroll right to see more
 ConditionsComfort  
Time TempWeatherWind HumidityBarometerVisibility
9:00 pm
Sat, Dec 10
47 °FCool.8 mph94%30.12 "Hg9 mi
8:00 pm49 °FCool.17 mph87%30.09 "Hg9 mi
7:00 pm53 °FCool.14 mph95%30.02 "Hg3 mi
6:00 pm53 °FCool.14 mph95%30.03 "Hg4 mi
5:00 pm53 °FCool.13 mph96%30.06 "Hg4 mi
4:00 pm54 °FCool.10 mph95%30.08 "Hg5 mi
3:00 pm55 °FCool.10 mph94%30.10 "Hg6 mi
2:00 pm54 °FRain. Low clouds.9 mph97%30.11 "Hg4 mi
1:00 pm53 °FRain. Low clouds.3 mph99%30.14 "Hg2 mi
12:00 pm53 °FRain. Low clouds.3 mph98%30.16 "Hg2 mi
11:00 am53 °FOvercast.6 mph92%30.18 "Hg9 mi
10:00 am53 °FOvercast.6 mph95%30.19 "Hg7 mi
9:00 am53 °FOvercast.5 mph97%30.19 "Hg7 mi
8:00 am53 °FLow clouds.6 mph96%30.17 "Hg7 mi
7:00 am53 °FLow clouds.7 mph96%30.17 "Hg9 mi
6:00 am53 °FCool.7 mph97%30.16 "Hg8 mi
5:00 am52 °FCool.6 mph97%30.16 "Hg7 mi
4:00 am52 °FFog.6 mph97%30.16 "Hg4 mi
3:00 am52 °FFog.8 mph96%30.17 "Hg5 mi
2:00 am53 °FLow clouds.10 mph94%30.18 "Hg4 mi
1:00 am53 °FLow clouds.12 mph91%30.19 "Hg4 mi
12:00 am53 °FCool.7 mph89%30.19 "Hg5 mi
11:00 pm
Fri, Dec 9
53 °FCool.9 mph88%30.20 "Hg6 mi
10:00 pm52 °FOvercast.15 mph91%30.20 "Hg5 mi
Weather by CustomWeather, © 2016

See weather overviewHow to use our weather pages